DW2182 Weather Reports


Display with metric or nautical units.
time (UTC)temp
F
wind
direction
speed
MPH
gust
MPH
rain 1hr
in
rain 24hr
in
rain mn
in
humidity
%
barometer
mb
20260901085557 64 0.0 0.0 0.00 0.00 0.00 96 1013.4
20260901084537 65 0.0 0.0 0.00 0.00 0.00 95 1013.4
20260901083517 65 0.0 0.0 0.00 0.00 0.00 96 1013.3
20260901082516 65 0.0 0.0 0.00 0.00 0.00 95 1013.4
20260901081517 65 0.0 0.0 0.00 0.00 0.00 95 1013.7
20260901080541 65 0.0 0.0 0.00 0.00 0.00 95 1013.6
20260901075517 65 0.0 0.0 0.00 0.00 0.00 95 1013.5
20260901074517 65 0.0 0.0 0.00 0.00 0.00 95 1013.6
20260901073537 65 0.0 0.0 0.00 0.00 0.00 95 1013.5
20260901072516 65 0.0 0.0 0.00 0.00 0.00 95 1013.5
20260901071537 66 0.0 0.0 0.00 0.00 0.00 95 1013.5
20260901070517 66 0.0 0.0 0.00 0.00 0.00 95 1013.6
20260901065517 66 0.0 0.0 0.00 0.00 0.00 95 1013.6
20260901064537 66 0.0 0.0 0.00 0.00 0.00 95 1013.7
20260901063517 66 0.0 0.0 0.00 0.00 0.00 95 1013.7
20260901062519 66 0.0 0.0 0.00 0.00 0.00 95 1013.9
20260901061517 66 0.0 0.0 0.00 0.00 0.00 94 1013.8
20260901060517 66 0.0 0.0 0.00 0.00 0.00 94 1013.6
20260901055516 66 0.0 0.0 0.00 0.00 0.00 94 1013.8
20260901054517 67 0.0 0.0 0.00 0.00 0.00 94 1013.8
20260901053516 67 0.0 0.0 0.00 0.00 0.00 94 1013.8
20260901052516 67 0.0 0.0 0.00 0.00 0.00 94 1013.8
20260901051517 67 0.0 0.0 0.00 0.00 0.00 94 1013.7
20260901050517 67 0.0 0.0 0.00 0.00 0.00 94 1013.5
20260901045517 67 0.0 0.0 0.00 0.00 0.00 94 1013.5
20260901044516 67 0.0 0.0 0.00 0.00 0.00 94 1013.4
20260901043516 68 0.0 0.0 0.00 0.00 0.00 94 1013.3
20260901042517 68 0.0 0.0 0.00 0.00 0.00 93 1013.2
20260901041517 68 0.0 0.0 0.00 0.00 0.00 93 1013.2
20260901040536 68 0.0 0.0 0.00 0.00 0.00 93 1013.0
20260901035517 69 0.0 0.0 0.00 0.00 0.00 92 1013.0
20260901034517 69 0.0 0.0 0.00 0.00 0.00 92 1013.1
20260901033517 69 0.0 0.0 0.00 0.00 0.00 91 1013.0
20260901032517 70 0.0 0.0 0.00 0.00 0.00 90 1013.0
20260901031517 70 0.0 0.0 0.00 0.00 0.00 90 1012.9
20260901030517 70 0.0 0.0 0.00 0.00 0.00 89 1012.8
20260901025516 71 0.0 0.0 0.00 0.00 0.00 88 1012.7
20260901024516 71 0.0 0.0 0.00 0.00 0.00 87 1012.6
20260901023516 72 0.0 0.0 0.00 0.00 0.00 86 1012.6
20260901022516 73 0.0 0.0 0.00 0.00 0.00 84 1012.7
20260901021516 73 0.0 0.0 0.00 0.00 0.00 82 1012.5
20260901020516 73 0.0 0.0 0.00 0.00 0.00 83 1012.4
20260901015537 73 0.0 0.0 0.00 0.00 0.00 84 1012.4
20260901014516 74 0.0 0.0 0.00 0.00 0.00 82 1012.6
20260901013516 75 0.0 0.0 0.00 0.00 0.00 78 1012.5
20260901012517 76 0.0 0.0 0.00 0.00 0.00 76 1012.4
20260901011557 77 0.0 0.0 0.00 0.00 0.00 73 1012.3
20260901010517 78 0.0 0.0 0.00 0.00 0.00 72 1012.4
20260901005516 79 0.0 2.0 0.00 0.00 0.00 71 1012.2
20260901004517 80 0.0 0.0 0.00 0.00 0.00 69 1012.3
20260901003517 80 0.0 0.0 0.00 0.00 0.00 67 1012.3
20260901002516 81 0.0 0.0 0.00 0.00 0.00 65 1012.4
20260901001517 81 23 1.0 4.0 0.00 0.00 0.00 64 1012.2
20260901000516 82 23 1.0 3.0 0.00 0.00 0.00 63 1012.4
20260831235516 82 0.0 0.0 0.00 0.00 0.00 63 1012.3
20260831234516 84 23 2.0 5.0 0.00 0.00 0.00 59 1012.2
20260831233516 84 135 2.0 3.0 0.00 0.00 0.00 57 1012.3
20260831232516 85 23 2.0 6.0 0.00 0.00 0.00 55 1012.3
20260831231536 85 0 1.0 2.0 0.00 0.00 0.00 56 1012.3
20260831230516 85 0 3.0 7.0 0.00 0.00 0.00 52 1012.3
20260831225516 86 0 3.0 8.0 0.00 0.00 0.00 48 1012.2
20260831224517 86 158 2.0 7.0 0.00 0.00 0.00 51 1012.3
20260831223517 87 135 3.0 6.0 0.00 0.00 0.00 50 1012.3
20260831222517 87 135 2.0 4.0 0.00 0.00 0.00 47 1012.1
20260831221516 87 158 2.0 5.0 0.00 0.00 0.00 46 1012.1
20260831220516 87 0 3.0 7.0 0.00 0.00 0.00 48 1012.2
20260831215516 87 0 5.0 9.0 0.00 0.00 0.00 48 1012.1
20260831214516 88 23 4.0 8.0 0.00 0.00 0.00 49 1012.2
20260831213516 88 0 2.0 4.0 0.00 0.00 0.00 48 1012.1
20260831212516 88 135 1.0 4.0 0.00 0.00 0.00 49 1011.9
20260831211516 88 0 2.0 5.0 0.00 0.00 0.00 50 1012.0
20260831210516 88 0 3.0 7.0 0.00 0.00 0.00 49 1012.0
20260831205519 89 135 2.0 5.0 0.00 0.00 0.00 50 1011.9
20260831204517 89 135 3.0 8.0 0.00 0.00 0.00 48 1011.9
20260831203517 88 0 2.0 5.0 0.00 0.00 0.00 49 1011.8
20260831202516 88 135 3.0 7.0 0.00 0.00 0.00 50 1011.8
20260831201536 88 0 3.0 7.0 0.00 0.00 0.00 50 1011.9
20260831200516 88 113 2.0 5.0 0.00 0.00 0.00 52 1011.6
20260831195516 87 23 3.0 11.0 0.00 0.00 0.00 52 1011.5
20260831194516 87 0 3.0 9.0 0.00 0.00 0.00 52 1011.6
20260831193516 87 0 4.0 10.0 0.00 0.00 0.00 52 1011.6
20260831192536 87 0 4.0 10.0 0.00 0.00 0.00 51 1011.6
20260831191516 86 23 4.0 11.0 0.00 0.00 0.00 55 1011.6
20260831190516 86 135 2.0 5.0 0.00 0.00 0.00 56 1011.7
20260831185517 85 0 3.0 7.0 0.00 0.00 0.00 56 1011.6
20260831184517 85 0 4.0 9.0 0.00 0.00 0.00 57 1011.7
20260831183537 85 23 4.0 9.0 0.00 0.00 0.00 63 1011.7
20260831182516 85 135 3.0 10.0 0.00 0.00 0.00 67 1011.8
20260831181516 84 135 4.0 12.0 0.00 0.00 0.00 68 1011.7
20260831180516 83 135 3.0 7.0 0.00 0.00 0.00 68 1011.6
20260831175516 83 158 4.0 8.0 0.00 0.00 0.00 70 1011.6
20260831174516 83 135 3.0 6.0 0.00 0.00 0.00 72 1011.7
20260831173516 83 158 2.0 7.0 0.00 0.00 0.00 73 1011.9
20260831172516 82 23 3.0 8.0 0.00 0.00 0.00 73 1011.9
20260831171537 81 135 1.0 4.0 0.00 0.00 0.00 79 1011.9
20260831170516 80 158 2.0 7.0 0.00 0.00 0.00 80 1011.9
20260831165516 80 135 2.0 7.0 0.00 0.00 0.00 82 1012.0
20260831164516 79 158 2.0 4.0 0.00 0.00 0.00 82 1011.8
20260831163517 79 135 2.0 7.0 0.00 0.00 0.00 83 1011.9
20260831162516 79 135 3.0 8.0 0.00 0.00 0.00 81 1011.7
20260831161518 79 0 3.0 8.0 0.00 0.00 0.00 82 1011.8
20260831160536 79 135 2.0 4.0 0.00 0.00 0.00 84 1011.6
20260831155516 79 158 3.0 9.0 0.00 0.00 0.00 84 1011.5
20260831154516 79 135 4.0 8.0 0.00 0.00 0.00 84 1011.3
20260831153516 78 135 2.0 8.0 0.00 0.00 0.00 86 1011.1
20260831152516 78 135 2.0 5.0 0.00 0.00 0.00 87 1011.0
20260831151536 77 135 3.0 5.0 0.00 0.00 0.00 89 1010.9
20260831150515 77 158 5.0 9.0 0.00 0.00 0.00 89 1010.6
20260831145516 77 135 2.0 5.0 0.00 0.00 0.00 90 1010.6
20260831144556 76 0 2.0 6.0 0.00 0.00 0.00 92 1010.6
20260831143516 75 23 2.0 5.0 0.00 0.00 0.00 92 1010.4
20260831142516 75 23 2.0 7.0 0.00 0.00 0.00 92 1010.3
20260831141515 75 158 2.0 7.0 0.00 0.00 0.00 93 1010.5
20260831140516 74 135 2.0 4.0 0.00 0.00 0.00 93 1010.7
20260831135516 74 135 2.0 5.0 0.00 0.00 0.00 93 1010.6
20260831134536 74 135 2.0 4.0 0.00 0.00 0.00 93 1010.3
20260831133516 74 135 2.0 7.0 0.00 0.00 0.00 93 1010.0
20260831132516 73 135 1.0 4.0 0.00 0.00 0.00 93 1009.7
20260831131516 73 0.0 0.0 0.00 0.00 0.00 93 1009.6
20260831130515 72 135 1.0 4.0 0.00 0.00 0.00 94 1009.5
20260831125515 72 113 1.0 3.0 0.00 0.00 0.00 94 1009.4
20260831124536 71 0.0 2.0 0.00 0.00 0.00 95 1009.3
20260831123516 71 0.0 0.0 0.00 0.00 0.00 95 1009.0
20260831122515 71 0.0 0.0 0.00 0.00 0.00 96 1008.8
20260831121516 71 0.0 0.0 0.00 0.00 0.00 96 1008.6
20260831120538 70 0.0 0.0 0.00 0.00 0.00 97 1008.5
20260831115516 70 0.0 0.0 0.00 0.00 0.00 97 1008.5
20260831114518 70 90 1.0 2.0 0.00 0.00 0.00 96 1008.4
20260831113516 70 0.0 1.0 0.00 0.00 0.00 96 1008.4
20260831112518 70 0.0 3.0 0.00 0.00 0.00 96 1008.4
20260831111516 70 0.0 0.0 0.00 0.00 0.00 96 1008.4
20260831110538 70 0.0 0.0 0.00 0.00 0.00 96 1008.3
20260831105538 70 0.0 0.0 0.00 0.00 0.00 96 1007.8
20260831104516 71 0.0 0.0 0.00 0.00 0.00 96 1008.1
20260831103518 71 0.0 0.0 0.00 0.00 0.00 96 1007.8
20260831102538 71 0.0 0.0 0.00 0.00 0.00 97 1007.4
20260831101518 71 90 1.0 4.0 0.00 0.00 0.00 96 1007.4
20260831100518 71 90 1.0 3.0 0.00 0.00 0.00 96 1007.2
20260831095518 71 90 2.0 4.0 0.00 0.00 0.00 97 1007.6
20260831094519 71 90 1.0 3.0 0.00 0.00 0.00 96 1007.7
20260831093538 71 90 2.0 4.0 0.00 0.00 0.00 96 1007.8
20260831092518 71 90 3.0 7.0 0.00 0.00 0.00 96 1007.6
20260831091518 71 90 3.0 6.0 0.00 0.00 0.00 96 1007.6
20260831090519 71 90 4.0 7.0 0.00 0.00 0.00 96 1007.7